St. Joseph, KS

9:10 AM CST on December 12, 2019 (GMT -0600)
Rosecrans Memorial

Weather History for KSTJ - October, 2019

Change the Weather History Date:

Wednesday, October 9, 2019

  Actual Average Record
Temperature  
Mean Temperature 58 °F 57 °F  
Max Temperature 65 °F 70 °F 88 °F (1938)
Min Temperature 50 °F 45 °F 25 °F (1964)
Degree Days  
Heating Degree Days 7 9  
Month to date heating degree days 55 68  
Since 1 July heating degree days 60 148  
Cooling Degree Days 0 1  
Month to date cooling degree days 17 14  
Year to date cooling degree days 1466 1213  
Growing Degree Days 8 (Base 50)    
Moisture  
Dew Point 49 °F    
Average Humidity 73    
Maximum Humidity 83    
Minimum Humidity 63    
Precipitation  
Precipitation 0.00 in 0.09 in 2.30 in (2014)
Month to date precipitation 2.31 0.81  
Year to date precipitation 35.91 30.53  
Sea Level Pressure  
Sea Level Pressure 29.90 in    
Wind  
Wind Speed 10 mph (SSE)    
Max Wind Speed 21 mph    
Max Gust Speed 29 mph    
Visibility 10 miles    
Events      
T = Trace of Precipitation, MM = Missing Value Source: NWS Daily Summary

Daily Weather History Graph

Daily Weather History Graph

Search for Another Location

Airport or City:

Astronomy

Oct. 09, 2019 Rise Set
Actual Time 7:23 AM CDT 6:49 PM CDT
Civil Twilight 6:56 AM CDT 7:16 PM CDT
Nautical Twilight 6:25 AM CDT 7:47 PM CDT
Astronomical Twilight 5:53 AM CDT 8:19 PM CDT
Moon 5:21 PM CDT (10/9) 3:11 AM CDT (10/9)
Length of Visible Light 12h 20m
Length of Day
11h 26m
Waxing Gibbous, 85% of the Moon is Illuminated
Oct 9
Waxing Gibbous
Oct 13
Full
Oct 21
Last Quarter
Oct 27
New
Nov 4
First Quarter

Hourly Weather History & Observations

Time (CDT) Temp. Dew Point Humidity Pressure Visibility Wind Dir Wind Speed Gust Speed Precip Events Conditions
12:53 AM 54.0 °F 46.9 °F 77% 29.97 in 10.0 mi SSE 6.9 mph - N/A   Clear
1:53 AM 53.1 °F 46.9 °F 80% 29.97 in 10.0 mi South 6.9 mph - N/A   Clear
2:53 AM 54.0 °F 46.0 °F 75% 29.96 in 10.0 mi SSE 8.1 mph - N/A   Clear
3:53 AM 54.0 °F 46.0 °F 75% 29.94 in 10.0 mi SSE 8.1 mph - N/A   Clear
4:53 AM 55.0 °F 45.0 °F 69% 29.93 in 10.0 mi SSE 8.1 mph - N/A   Clear
5:53 AM 53.1 °F 45.0 °F 74% 29.94 in 10.0 mi SE 4.6 mph - N/A   Clear
6:53 AM 52.0 °F 45.0 °F 77% 29.96 in 10.0 mi Calm Calm - N/A   Clear
7:53 AM 52.0 °F 46.0 °F 80% 29.96 in 10.0 mi SE 4.6 mph - N/A   Clear
8:53 AM 54.0 °F 46.0 °F 75% 29.96 in 10.0 mi SE 6.9 mph - N/A   Clear
9:53 AM 55.9 °F 46.0 °F 69% 29.96 in 10.0 mi SSE 11.5 mph - N/A   Mostly Cloudy
10:53 AM 57.0 °F 48.0 °F 72% 29.94 in 10.0 mi ESE 3.5 mph - N/A   Overcast
11:53 AM 57.9 °F 48.0 °F 70% 29.95 in 10.0 mi South 16.1 mph - N/A   Overcast
12:53 PM 59.0 °F 51.1 °F 75% 29.94 in 10.0 mi South 15.0 mph 23.0 mph N/A   Overcast
1:53 PM 61.0 °F 52.0 °F 72% 29.91 in 10.0 mi SSE 12.7 mph - N/A   Overcast
2:53 PM 62.1 °F 52.0 °F 70% 29.87 in 10.0 mi SSE 16.1 mph 21.9 mph N/A   Scattered Clouds
3:53 PM 64.0 °F 52.0 °F 65% 29.85 in 10.0 mi SSE 11.5 mph 26.5 mph N/A   Scattered Clouds
4:53 PM 63.0 °F 50.0 °F 63% 29.83 in 10.0 mi SSE 17.3 mph 27.6 mph N/A   Overcast
5:53 PM 61.0 °F 52.0 °F 72% 29.82 in 10.0 mi SSE 18.4 mph 28.8 mph N/A   Overcast
6:53 PM 60.1 °F 53.1 °F 78% 29.82 in 10.0 mi SE 15.0 mph 23.0 mph N/A   Overcast
7:53 PM 59.0 °F 52.0 °F 78% 29.83 in 10.0 mi SE 12.7 mph 19.6 mph N/A   Overcast
8:53 PM 60.1 °F 53.1 °F 78% 29.85 in 10.0 mi SSE 8.1 mph - N/A   Overcast
9:53 PM 62.1 °F 54.0 °F 75% 29.86 in 10.0 mi SE 6.9 mph - N/A   Overcast
10:53 PM 62.1 °F 55.0 °F 78% 29.85 in 10.0 mi SE 6.9 mph - N/A   Overcast
11:53 PM 63.0 °F 55.9 °F 78% 29.84 in 10.0 mi SE 5.8 mph - N/A   Overcast